Location: Unspecified
(0.0000°N, 0.0000°E)
Time: 14:43:28
(UTC+00:00)

FORMOSAT 3A - Pass Details

Date: 24 May 2026
Orbit: 751 x 823 km, 72.0° (Epoch: 5 June)

Event Time Altitude Azimuth Distance (km) Brightness Sun altitude
Rises 20:40:42 0° 315° (NW) 3,302 11.1 -37.8°
Reaches altitude 10° 20:43:54 10° 297° (WNW) 2,361 10.2 -38.5°
Enters shadow 20:47:05 17° 260° (W) 1,881 9.4 -39.2°
